When you browse on this site, cookies collect data to enhance your experience and personalize the content and advertising you see.
Visit our Privacy Policy to learn more. By continuing to use the site, you agree to this use of cookies and data.
  • în România
  • Lista ţărilor
  • Pe 7 zile
  • Temperatura apei
  • Meteo pe hartă
  • Widget-uri
  • user-avatar
    Intrare

    Meteo pe oră la Trinidad

    Astăzi, 19 Septembrie, Joi

    Timp Temperatura Precipitaţii Vânt Presiune Umiditate
    00:00 +31°C° 0 mm 2 m/s 739 mmHg 43%
    01:00 +31°C° 0 mm 2 m/s 739 mmHg 43%
    02:00 +31°C° 0 mm 2 m/s 739 mmHg 41%
    03:00 +30°C° 0 mm 2 m/s 739 mmHg 44%
    04:00 +30°C° 0 mm 2 m/s 739 mmHg 47%
    05:00 +29°C° 0 mm 1 m/s 739 mmHg 50%
    06:00 +30°C° 0 mm 2 m/s 739 mmHg 48%
    07:00 +31°C° 0 mm 2 m/s 740 mmHg 46%
    08:00 +32°C° 0 mm 2 m/s 741 mmHg 44%
    09:00 +36°C° 0 mm 3 m/s 741 mmHg 38%
    10:00 +40°C° 0 mm 4 m/s 741 mmHg 32%
    11:00 +43°C° 0 mm 5 m/s 741 mmHg 26%
    12:00 +44°C° 0 mm 4 m/s 740 mmHg 24%
    13:00 +44°C° 0 mm 4 m/s 739 mmHg 22%
    14:00 +45°C° 0 mm 4 m/s 738 mmHg 21%
    15:00 +44°C° 0 mm 4 m/s 737 mmHg 22%
    16:00 +43°C° 0 mm 4 m/s 737 mmHg 24%
    17:00 +42°C° 0 mm 4 m/s 737 mmHg 25%
    18:00 +40°C° 0 mm 4 m/s 737 mmHg 29%
    19:00 +37°C° 0 mm 3 m/s 738 mmHg 32%
    20:00 +35°C° 0 mm 2 m/s 738 mmHg 36%
    21:00 +35°C° 0 mm 2 m/s 739 mmHg 38%
    22:00 +34°C° 0 mm 2 m/s 739 mmHg 40%
    23:00 +32°C° 0 mm 1 m/s 739 mmHg 43%

    Mâine, 20 Septembrie, Vineri

    Timp Temperatura Precipitaţii Vânt Presiune Umiditate
    00:00 +31°C° 0 mm 1 m/s 739 mmHg 46%
    01:00 +31°C° 0 mm 1 m/s 739 mmHg 49%
    02:00 +30°C° 0 mm 1 m/s 739 mmHg 52%
    03:00 +29°C° 0 mm 1 m/s 739 mmHg 53%
    04:00 +29°C° 0 mm 1 m/s 739 mmHg 55%
    05:00 +29°C° 0 mm 1 m/s 740 mmHg 57%
    06:00 +30°C° 0 mm 1 m/s 741 mmHg 53%
    07:00 +32°C° 0 mm 1 m/s 742 mmHg 48%
    08:00 +34°C° 0 mm 1 m/s 743 mmHg 43%
    09:00 +37°C° 0 mm 2 m/s 743 mmHg 38%
    10:00 +39°C° 0 mm 2 m/s 743 mmHg 33%
    11:00 +42°C° 0 mm 3 m/s 744 mmHg 28%
    12:00 +42°C° 0 mm 3 m/s 743 mmHg 28%
    13:00 +41°C° 0 mm 2 m/s 742 mmHg 29%
    14:00 +40°C° 0 mm 2 m/s 741 mmHg 29%
    15:00 +39°C° 0 mm 2 m/s 741 mmHg 34%
    16:00 +38°C° 0 mm 3 m/s 740 mmHg 39%
    17:00 +36°C° 0 mm 3 m/s 740 mmHg 44%
    18:00 +35°C° 0 mm 2 m/s 740 mmHg 48%
    19:00 +32°C° 0 mm 2 m/s 741 mmHg 53%
    20:00 +31°C° 0 mm 1 m/s 742 mmHg 57%
    21:00 +30°C° 0 mm 1 m/s 742 mmHg 59%
    22:00 +30°C° 0 mm 1 m/s 742 mmHg 61%
    23:00 +29°C° 0 mm 1 m/s 743 mmHg 63%

    Poimâine, 21 Septembrie, Sâmbătă

    Timp Temperatura Precipitaţii Vânt Presiune Umiditate
    00:00 +29°C° 0 mm 1 m/s 743 mmHg 62%
    01:00 +28°C° 0 mm 1 m/s 742 mmHg 61%
    02:00 +28°C° 0 mm 1 m/s 742 mmHg 61%
    03:00 +27°C° 0.1 mm 2 m/s 742 mmHg 61%
    04:00 +26°C° 0.1 mm 2 m/s 743 mmHg 62%
    05:00 +26°C° 0.1 mm 2 m/s 743 mmHg 62%
    06:00 +27°C° 0.1 mm 2 m/s 744 mmHg 57%
    07:00 +28°C° 0.1 mm 3 m/s 744 mmHg 51%
    08:00 +30°C° 0.1 mm 3 m/s 745 mmHg 46%
    09:00 +33°C° 0.1 mm 3 m/s 746 mmHg 40%
    10:00 +36°C° 0.1 mm 3 m/s 746 mmHg 34%
    11:00 +38°C° 0.1 mm 3 m/s 746 mmHg 28%
    12:00 +40°C° 0 mm 2 m/s 745 mmHg 26%
    13:00 +41°C° 0 mm 2 m/s 744 mmHg 24%
    14:00 +43°C° 0 mm 1 m/s 743 mmHg 23%
    15:00 +42°C° 0 mm 1 m/s 742 mmHg 23%
    16:00 +41°C° 0 mm 1 m/s 741 mmHg 24%
    17:00 +41°C° 0 mm 1 m/s 741 mmHg 25%
    18:00 +37°C° 0 mm 1 m/s 741 mmHg 30%
    19:00 +35°C° 0 mm 1 m/s 741 mmHg 35%
    20:00 +32°C° 0 mm 1 m/s 742 mmHg 40%
    21:00 +31°C° 0 mm 1 m/s 742 mmHg 41%
    22:00 +31°C° 0 mm 2 m/s 743 mmHg 42%
    23:00 +30°C° 0 mm 2 m/s 743 mmHg 42%

    22 Septembrie, Duminică

    Timp Temperatura Precipitaţii Vânt Presiune Umiditate
    00:00 +29°C° 0 mm 2 m/s 743 mmHg 42%
    01:00 +29°C° 0 mm 2 m/s 743 mmHg 42%
    02:00 +28°C° 0 mm 2 m/s 743 mmHg 41%
    03:00 +28°C° 0 mm 2 m/s 743 mmHg 41%
    04:00 +27°C° 0 mm 2 m/s 743 mmHg 40%
    05:00 +27°C° 0 mm 2 m/s 743 mmHg 40%
    06:00 +28°C° 0 mm 3 m/s 744 mmHg 37%
    07:00 +29°C° 0 mm 3 m/s 745 mmHg 34%
    08:00 +30°C° 0 mm 4 m/s 746 mmHg 31%
    09:00 +33°C° 0 mm 4 m/s 746 mmHg 28%
    10:00 +36°C° 0 mm 3 m/s 746 mmHg 24%
    11:00 +39°C° 0 mm 3 m/s 746 mmHg 21%
    12:00 +40°C° 0 mm 3 m/s 745 mmHg 20%
    13:00 +42°C° 0 mm 2 m/s 744 mmHg 19%
    14:00 +43°C° 0 mm 2 m/s 743 mmHg 18%
    15:00 +43°C° 0 mm 2 m/s 742 mmHg 19%
    16:00 +42°C° 0 mm 2 m/s 742 mmHg 19%
    17:00 +42°C° 0 mm 2 m/s 741 mmHg 19%
    18:00 +39°C° 0 mm 2 m/s 741 mmHg 23%
    19:00 +37°C° 0 mm 2 m/s 741 mmHg 27%
    20:00 +34°C° 0 mm 2 m/s 741 mmHg 31%
    21:00 +32°C° 0 mm 2 m/s 742 mmHg 32%
    22:00 +31°C° 0 mm 2 m/s 742 mmHg 34%
    23:00 +30°C° 0 mm 2 m/s 743 mmHg 35%

    23 Septembrie, Luni

    Timp Temperatura Precipitaţii Vânt Presiune Umiditate
    00:00 +30°C° 0 mm 2 m/s 742 mmHg 36%
    01:00 +29°C° 0 mm 2 m/s 742 mmHg 37%
    02:00 +28°C° 0 mm 2 m/s 742 mmHg 38%
    03:00 +28°C° 0 mm 2 m/s 742 mmHg 39%
    04:00 +28°C° 0 mm 2 m/s 742 mmHg 40%
    05:00 +27°C° 0 mm 2 m/s 742 mmHg 41%
    06:00 +28°C° 0 mm 2 m/s 743 mmHg 38%
    07:00 +30°C° 0 mm 3 m/s 743 mmHg 35%
    08:00 +31°C° 0 mm 3 m/s 744 mmHg 31%
    09:00 +35°C° 0 mm 3 m/s 744 mmHg 27%
    10:00 +38°C° 0 mm 3 m/s 744 mmHg 22%
    11:00 +42°C° 0 mm 2 m/s 744 mmHg 18%
    12:00 +45°C° 0 mm 2 m/s 743 mmHg 16%
    13:00 +46°C° 0 mm 1 m/s 742 mmHg 15%
    14:00 +46°C° 0 mm 0 m/s 742 mmHg 13%
    15:00 +44°C° 0 mm 0 m/s 741 mmHg 14%
    16:00 +42°C° 0 mm 0 m/s 740 mmHg 15%
    17:00 +41°C° 0 mm 0 m/s 740 mmHg 16%
    18:00 +38°C° 0 mm 0 m/s 740 mmHg 20%
    19:00 +35°C° 0 mm 0 m/s 740 mmHg 24%
    20:00 +32°C° 0 mm 0 m/s 740 mmHg 28%
    21:00 +31°C° 0 mm 0 m/s 740 mmHg 29%
    22:00 +30°C° 0 mm 0 m/s 741 mmHg 31%
    23:00 +30°C° 0 mm 0 m/s 741 mmHg 32%

    24 Septembrie, Marţi

    Timp Temperatura Precipitaţii Vânt Presiune Umiditate
    00:00 +31°C° 0 mm 1 m/s 741 mmHg 33%
    01:00 +30°C° 0 mm 1 m/s 741 mmHg 34%
    02:00 +30°C° 0 mm 1 m/s 741 mmHg 35%
    03:00 +29°C° 0 mm 1 m/s 741 mmHg 37%
    04:00 +29°C° 0 mm 1 m/s 741 mmHg 39%
    05:00 +28°C° 0 mm 1 m/s 742 mmHg 41%
    06:00 +30°C° 0 mm 2 m/s 742 mmHg 38%
    07:00 +31°C° 0 mm 3 m/s 743 mmHg 35%
    08:00 +34°C° 0 mm 4 m/s 744 mmHg 31%
    09:00 +36°C° 0 mm 3 m/s 744 mmHg 27%
    10:00 +38°C° 0 mm 3 m/s 744 mmHg 22%
    11:00 +40°C° 0 mm 3 m/s 745 mmHg 18%
    12:00 +43°C° 0 mm 3 m/s 744 mmHg 17%
    13:00 +44°C° 0 mm 3 m/s 743 mmHg 15%
    14:00 +45°C° 0 mm 3 m/s 742 mmHg 14%
    15:00 +45°C° 0 mm 3 m/s 741 mmHg 15%
    16:00 +44°C° 0 mm 3 m/s 741 mmHg 15%
    17:00 +44°C° 0 mm 3 m/s 740 mmHg 16%
    18:00 +40°C° 0 mm 2 m/s 740 mmHg 18%
    19:00 +37°C° 0 mm 2 m/s 740 mmHg 21%
    20:00 +35°C° 0 mm 2 m/s 741 mmHg 23%
    21:00 +34°C° 0 mm 2 m/s 741 mmHg 23%
    22:00 +34°C° 0 mm 3 m/s 742 mmHg 23%
    23:00 +34°C° 0 mm 3 m/s 743 mmHg 23%
    Arată mai mult